Lapse_Rate
7.1 6.5 6.5 6.5 6.5 6.5 6.5 6.5 6.5 6.5 6.5 6.5 6.5 6.5 6.5 7.0 7.1 7.1 7.3 7.4 7.5 7.7 8.1 8.3 6.1 5.7 5.4 4.8 4.8 4.9 4.6 5.5 4.7 3.5 3.8 3.4 2.7 3.0 3.5 4.9 5.1 5.4 5.8 6.2
6.5 6.5 6.5 6.5 6.5 6.5 6.5 6.5 6.5 6.5 6.5 6.5 6.5 6.5 6.5 6.5 6.7 7.1 7.2 7.5 7.5 7.7 7.7 5.3 6.1 5.8 5.2 5.6 5.1 5.0 5.3 5.2 4.9 4.4 5.1 5.2 5.3 4.8 5.9 5.8 5.7 6.3 6.3 5.8
6.5 6.5 6.6 6.5 6.5 6.5 6.5 6.5 6.5 6.5 6.5 6.5 6.5 6.5 6.5 6.5 7.0 7.2 7.3 7.6 7.6 7.4 7.6 7.5 7.0 6.1 5.4 5.1 5.4 5.3 5.4 5.5 5.4 4.1 4.2 4.3 4.0 4.1 5.0 5.8 6.1 6.2 5.9 5.8
6.5 6.6 6.5 6.5 6.5 6.5 6.5 6.5 6.5 6.5 6.5 6.5 6.5 6.5 6.5 6.5 6.5 6.5 7.1 7.4 7.6 7.8 7.1 8.2 7.8 6.3 5.4 5.6 5.3 5.4 5.8 5.9 5.9 4.7 3.8 3.9 4.3 5.0 6.8 7.2 6.9 6.6 5.6 5.5
6.5 6.5 6.5 6.5 6.5 6.5 6.5 6.5 6.5 6.5 6.5 6.5 6.5 6.5 6.5 6.5 6.5 6.5 6.5 7.3 7.5 7.8 7.9 7.9 6.7 6.3 5.8 5.4 5.6 5.9 6.1 6.0 6.5 6.3 5.2 4.2 4.6 6.5 6.9 6.8 6.3 6.8 6.8 6.5
6.5 7.1 6.5 6.5 6.5 6.5 6.5 6.5 6.5 6.5 6.5 6.5 6.5 6.5 6.5 6.5 6.5 6.5 6.7 7.2 7.4 7.7 7.8 7.5 6.5 5.8 5.9 5.3 5.8 6.2 6.2 6.2 6.3 6.5 6.4 5.0 4.8 5.5 6.0 5.9 5.5 6.3 7.2 6.1
6.5 6.5 6.5 6.7 6.5 6.5 6.5 6.5 6.5 6.5 6.5 6.5 6.5 6.5 6.5 6.5 6.5 6.5 6.5 7.1 7.5 7.8 7.9 7.7 7.3 7.0 6.1 5.9 6.3 6.5 6.4 6.4 6.7 6.5 6.3 5.3 5.1 5.9 6.7 7.0 6.9 6.0 6.2 6.0
6.5 6.5 6.5 6.5 6.5 6.5 6.5 6.5 6.5 6.5 6.5 6.5 6.5 6.5 6.5 6.5 6.8 7.1 7.3 7.5 7.7 7.8 7.8 7.1 6.7 6.7 6.5 6.2 6.3 6.7 6.4 6.3 6.7 6.9 6.6 7.5 7.2 6.7 6.0 6.1 6.7 6.8 6.0 6.1
6.5 6.5 6.5 6.5 6.5 6.5 6.5 6.5 6.5 6.5 6.5 6.5 6.5 6.5 6.5 6.5 6.5 6.8 7.0 7.3 7.5 7.8 7.9 7.9 8.3 8.3 7.1 7.1 7.0 7.6 7.6 7.2 7.8 7.8 8.1 7.2 7.3 6.5 5.7 6.0 6.6 5.3 5.9 6.0
6.5 6.5 6.5 6.5 6.7 6.6 6.5 6.5 6.5 6.5 6.5 6.5 6.5 6.5 6.5 6.5 6.5 6.5 6.6 7.1 7.5 7.9 8.0 8.1 8.0 7.8 8.3 7.8 7.2 6.6 7.2 7.8 8.1 8.3 7.8 7.2 6.7 6.3 5.9 6.0 5.8 5.0 5.4 5.6
6.5 6.5 6.5 6.5 6.5 6.5 6.5 6.5 6.5 6.5 6.5 6.5 6.5 6.5 6.5 6.5 6.5 6.5 6.7 7.4 7.7 7.9 8.0 8.1 8.2 7.9 7.1 7.1 7.7 7.9 7.9 8.1 6.6 6.5 6.6 7.1 6.9 6.9 6.3 5.8 5.5 5.3 5.0 5.5
6.5 6.5 6.5 6.5 6.5 6.5 6.5 6.5 6.5 6.5 6.5 6.5 6.5 6.5 6.5 6.5 6.7 7.1 7.2 7.6 7.9 8.1 8.1 8.1 7.6 6.3 5.6 7.7 7.5 7.1 7.0 7.5 6.6 6.0 6.4 6.0 7.0 6.3 5.6 5.1 5.1 4.8 4.6 5.4
6.5 6.5 6.5 6.5 6.5 6.5 6.5 6.5 6.5 6.5 6.5 6.5 6.5 6.5 6.5 6.7 6.7 7.0 6.9 7.4 8.0 8.1 8.1 8.2 7.9 6.1 4.9 4.8 5.0 6.3 6.6 6.4 6.4 6.3 5.9 6.1 6.4 5.6 5.5 5.2 5.1 4.7 4.8 5.4
6.9 6.5 6.5 6.5 6.5 6.5 6.5 6.5 6.5 6.5 6.5 6.5 6.5 6.5 6.5 6.5 6.5 6.9 7.2 7.1 7.3 7.9 8.1 8.0 7.4 6.7 5.6 4.7 4.0 4.0 4.7 6.0 6.2 6.3 5.8 5.9 5.8 5.8 5.8 5.3 4.8 4.6 4.8 5.6
6.5 6.5 6.5 6.5 6.5 6.5 6.5 6.5 6.5 6.5 6.5 6.5 6.5 6.5 6.5 6.5 6.5 6.9 7.1 7.2 7.2 7.4 7.5 8.0 8.3 7.2 5.3 3.9 2.9 2.5 3.1 4.4 5.5 6.0 5.4 5.0 4.8 5.3 5.6 5.3 5.1 4.7 5.3 5.6
6.5 6.5 6.5 6.5 6.5 6.5 6.5 6.5 6.5 6.5 6.5 6.5 6.5 6.5 6.5 7.0 7.1 7.1 7.3 7.6 7.6 7.9 8.1 8.5 8.3 6.5 5.5 4.5 3.9 3.0 2.6 3.2 5.0 5.7 5.1 5.0 4.8 4.7 5.3 5.3 5.0 5.2 5.4 5.9
6.5 6.5 6.5 6.5 6.5 6.5 6.5 6.5 6.5 6.5 6.5 6.5 6.5 6.5 6.8 6.6 6.9 7.1 7.1 7.6 7.7 8.0 8.2 8.1 8.3 7.7 6.0 4.3 4.3 3.5 2.1 2.9 5.6 5.6 5.0 4.5 4.2 4.4 4.8 5.3 5.4 5.5 5.5 6.3
6.5 6.5 6.5 6.5 6.5 6.5 6.5 6.5 6.5 6.5 6.5 6.5 6.5 6.5 6.8 7.0 7.5 7.6 7.3 7.9 7.9 8.2 8.3 8.4 8.6 8.5 5.4 4.2 4.1 3.2 2.8 3.9 5.5 5.9 5.7 4.3 4.2 3.8 4.2 4.3 5.4 5.6 5.7 5.9
6.8 6.5 6.5 6.5 6.5 6.5 6.5 6.5 6.5 6.5 6.5 6.5 6.5 6.7 7.1 7.5 7.6 7.2 8.0 8.3 8.4 8.5 8.6 8.8 8.9 8.8 5.5 3.7 3.9 3.8 2.9 4.5 5.2 5.4 5.6 4.8 3.9 3.9 3.5 3.6 3.9 4.4 4.3 4.1
6.5 6.5 6.5 6.5 6.5 6.5 6.5 6.5 7.3 6.8 6.5 6.9 7.1 6.9 7.0 7.3 6.5 6.5 8.1 8.4 8.5 8.7 8.9 8.8 8.9 8.5 6.3 3.5 4.2 3.7 3.9 4.7 5.3 4.8 4.7 4.3 3.7 3.9 3.5 3.2 3.0 3.5 3.6 3.7
6.5 6.5 6.5 6.5 6.5 6.5 6.5 7.1 7.4 6.5 6.5 7.4 7.6 7.5 7.5 6.7 7.4 8.3 8.6 8.5 8.8 8.9 8.9 9.1 8.9 8.5 7.2 4.0 3.8 3.9 4.4 5.2 4.1 4.5 4.7 4.1 3.5 3.5 3.8 3.2 3.3 3.2 3.4 3.3
6.5 6.5 6.5 6.5 6.5 6.5 7.3 6.8 6.5 6.8 7.6 7.8 7.8 7.8 7.6 8.0 8.1 8.2 8.4 8.5 8.6 8.6 8.8 9.0 8.6 7.8 6.7 4.1 4.1 4.4 4.4 4.0 3.5 4.3 4.3 3.8 3.5 3.8 3.9 3.6 3.6 3.3 3.6 3.4
6.5 6.5 6.5 6.5 6.5 6.9 7.6 7.3 7.8 8.0 7.7 7.8 7.9 8.1 8.2 8.0 8.1 8.3 8.6 8.4 8.6 8.7 8.8 9.0 8.8 7.6 6.5 5.1 4.4 4.6 3.8 3.9 3.8 3.5 3.8 3.6 3.4 3.6 4.3 4.2 4.1 3.9 3.9 3.5
6.5 7.2 6.5 6.5 6.6 7.1 7.5 7.8 8.2 8.3 8.0 8.1 8.2 8.1 8.1 8.0 8.2 8.2 8.5 8.8 8.8 8.7 8.7 9.0 8.7 7.8 6.8 6.3 5.2 4.4 3.7 3.8 3.6 3.5 3.2 3.8 3.6 3.6 3.9 3.9 4.1 4.0 4.3 4.1
6.8 6.9 6.5 6.5 6.8 7.3 7.5 7.9 8.1 8.2 8.3 8.3 8.4 8.3 8.2 8.0 8.1 8.3 8.6 8.6 8.6 8.6 8.8 8.9 8.6 8.4 6.9 6.6 5.1 4.4 3.4 3.9 3.8 3.8 3.0 3.3 3.9 3.5 3.4 3.4 3.4 3.4 3.6 4.0
7.2 6.5 6.5 6.5 7.3 7.1 7.4 8.1 8.4 8.0 8.0 8.1 8.0 8.0 8.4 8.3 8.0 8.2 8.3 8.8 8.9 8.5 8.6 8.6 8.7 8.6 7.5 6.7 5.4 5.3 3.6 4.1 3.7 4.6 3.7 2.8 3.1 3.3 3.1 2.8 3.1 4.3 4.2 4.2
Wind_Speed
2 4 7 3 5 3 4 7 11 13 7 6 14 20 17 16 15 18 19 18 17 18 16 13 11 11 10 7 6 5 4 5 3 3 4 4 4 5 6 6 10 9 10 11
3 6 2 1 2 5 6 8 13 11 8 7 13 20 18 18 20 18 18 17 16 13 11 12 13 11 9 6 5 6 6 5 5 4 4 4 3 5 7 6 9 11 11 11
5 2 6 3 5 7 9 12 12 11 5 9 10 20 16 8 11 13 17 18 14 13 9 10 12 10 6 5 5 5 5 5 6 7 4 4 3 5 6 6 6 8 11 13
7 1 5 4 6 8 14 10 12 7 5 8 2 10 19 13 8 11 16 15 15 11 7 10 10 7 5 4 4 4 5 5 6 7 6 8 6 7 7 6 5 7 10 12
3 3 5 9 9 10 5 3 4 5 10 10 14 6 12 5 9 8 4 9 10 6 9 11 8 5 4 3 3 4 4 4 6 7 8 7 10 8 7 7 9 9 10 12
13 2 5 7 4 9 2 3 3 3 6 8 16 13 14 11 3 7 4 8 5 4 6 4 2 3 4 2 1 4 4 5 6 8 9 11 12 11 9 9 8 8 8 8
5 8 2 3 6 2 6 7 4 6 6 9 2 8 17 12 11 7 9 7 2 1 1 2 2 2 1 2 1 3 3 5 7 9 10 11 12 12 14 13 10 10 8 7
5 3 1 2 2 5 6 5 7 12 14 17 5 10 10 1 5 6 9 8 7 8 7 7 5 1 2 2 2 4 4 6 8 8 10 11 12 8 8 11 9 8 7 8
6 6 3 4 5 4 1 7 8 13 19 16 17 21 13 12 5 7 10 11 12 12 10 9 7 6 5 5 5 7 6 6 9 10 10 11 11 11 9 11 11 7 8 7
4 10 1 6 7 4 5 10 9 8 16 24 17 21 14 3 8 11 12 12 12 13 13 12 11 10 9 8 8 8 7 9 11 12 11 10 11 10 10 10 10 10 8 8
7 3 7 12 4 11 14 14 14 13 8 13 16 17 12 12 15 15 14 14 13 13 13 13 13 13 13 12 11 10 9 10 10 10 12 11 11 11 10 9 9 11 7 9
4 5 8 21 17 8 7 7 10 5 8 9 10 11 13 16 16 19 17 15 13 12 14 14 15 15 15 16 15 13 11 11 10 10 11 10 12 8 9 8 10 8 7 7
5 2 8 13 4 2 8 23 16 15 14 21 13 5 1 16 17 10 12 18 16 13 16 15 16 15 16 16 16 15 14 11 11 10 8 9 8 7 8 9 9 8 8 6
3 2 7 10 16 18 19 19 18 15 11 18 17 23 22 18 17 15 14 13 16 16 17 16 17 17 17 17 17 17 17 13 13 9 8 8 7 6 6 7 8 8 7 6
4 4 4 13 14 16 16 16 12 11 12 10 20 23 13 16 18 17 14 17 18 20 19 18 17 16 17 18 19 19 19 17 15 8 7 7 7 6 4 5 6 6 6 4
2 3 7 11 10 12 13 7 7 7 10 8 10 7 14 15 14 16 14 17 18 19 18 20 19 20 19 18 19 20 19 19 17 9 7 7 6 6 5 3 4 6 5 5
2 2 5 7 10 15 6 7 5 2 6 8 7 11 16 20 20 19 11 15 19 21 21 19 20 19 17 17 18 20 21 20 14 6 7 8 7 5 5 3 4 6 5 6
4 5 4 7 8 7 6 8 4 7 2 8 8 12 16 17 21 18 2 17 19 21 22 21 18 18 18 17 17 20 20 19 11 8 9 8 7 6 5 5 3 5 2 3
11 3 4 4 7 12 7 5 6 6 5 9 12 15 17 20 18 10 10 22 21 21 20 19 18 19 17 15 17 19 20 17 10 9 8 8 7 6 6 6 6 5 5 5
6 6 5 9 10 11 5 11 13 6 7 13 15 17 19 20 12 11 21 25 23 22 19 20 20 19 15 15 16 18 18 15 13 10 8 7 7 6 6 7 7 7 6 6
4 3 8 8 9 6 6 14 13 5 8 20 18 17 18 15 13 24 25 23 22 21 23 21 19 15 15 15 15 16 17 14 15 10 7 5 6 6 7 7 7 8 8 9
3 4 4 2 5 6 12 4 6 7 13 17 17 16 20 20 22 23 24 24 23 23 22 20 18 15 15 14 13 15 15 16 14 11 6 6 6 5 5 8 8 9 10 11
2 2 3 3 4 4 8 8 1 10 15 14 18 19 20 22 22 24 21 23 22 22 19 18 17 18 14 12 11 15 14 15 14 10 7 5 5 6 6 8 8 8 9 9
2 5 3 5 2 10 12 5 11 15 15 16 17 19 19 22 23 24 22 20 20 19 18 17 17 17 16 13 12 13 13 14 14 8 5 5 5 7 8 7 7 7 7 7
3 5 4 6 4 13 4 12 17 17 16 18 18 19 20 20 21 22 20 21 19 19 18 17 16 15 17 14 13 12 12 13 12 5 3 4 4 8 10 10 7 8 9 8
3 2 3 3 10 7 15 17 17 16 19 18 19 21 20 18 19 20 19 19 18 19 18 17 17 17 16 13 12 12 11 11 11 5 1 3 4 6 8 10 12 23 22 24
Wind_Direction
57 248 240 279 252 310 287 278 275 274 267 269 261 266 263 259 265 257 262 266 261 257 255 236 232 209 204 216 226 236 259 267 225 206 208 232 226 222 230 234 232 236 240 242
217 250 298 147 154 218 236 267 271 280 280 240 281 276 272 259 256 260 265 266 264 260 245 241 205 192 202 214 235 251 260 252 223 213 232 230 230 225 230 224 235 242 246 247
244 109 140 215 220 234 242 248 274 276 312 242 285 279 265 245 239 258 261 263 269 264 262 203 187 191 189 210 230 255 269 254 216 199 212 236 245 261 245 230 235 236 239 240
271 93 216 214 249 222 276 232 256 260 282 279 283 288 286 282 246 249 259 274 270 253 226 192 181 176 188 204 237 261 270 258 220 193 203 213 225 240 248 252 253 259 242 244
287 229 221 236 242 200 271 159 227 247 259 289 246 252 273 210 270 275 290 336 310 253 190 172 167 162 168 201 258 264 264 257 236 222 215 224 233 247 253 254 263 266 264 258
262 302 247 248 276 224 107 232 245 238 253 250 258 218 271 286 259 313 291 341 338 180 172 165 149 166 163 119 255 261 265 267 253 243 239 238 242 244 246 250 257 262 264 258
301 247 263 236 268 211 223 239 255 237 211 253 144 222 254 291 289 300 310 311 195 151 284 300 264 205 121 33 324 287 270 286 276 262 257 247 241 241 248 253 256 260 251 240
317 298 346 102 335 337 226 253 257 267 274 283 219 246 243 244 34 61 60 47 39 26 8 346 335 331 43 12 311 291 290 287 279 264 256 250 245 239 239 247 253 257 243 239
326 250 345 9 331 303 122 243 321 281 272 268 264 264 256 250 108 47 31 33 20 11 8 8 18 27 22 352 325 283 291 296 285 279 280 264 250 241 234 237 249 245 237 238
27 290 172 358 334 187 348 332 286 256 272 267 263 268 269 38 354 0 8 10 10 10 15 13 13 10 1 349 327 315 305 297 295 291 282 272 254 240 237 236 241 235 240 245
349 244 261 327 321 325 318 305 293 297 273 279 273 266 39 19 4 353 355 355 2 10 12 6 4 4 2 353 340 327 313 307 302 299 296 281 270 255 242 237 240 234 232 244
8 300 291 298 308 325 296 67 25 346 318 307 295 275 43 31 10 355 349 351 353 13 17 11 4 357 357 350 345 335 323 313 305 299 293 278 269 252 237 234 235 225 215 231
357 242 303 298 138 91 349 313 312 305 273 267 284 286 257 352 345 341 356 342 341 5 14 13 7 360 358 343 335 336 330 323 312 309 304 294 268 246 235 235 233 215 207 215
328 283 269 283 292 299 301 310 308 301 289 291 279 287 310 1 358 344 357 356 344 348 7 4 3 355 344 342 342 335 331 327 319 311 317 316 310 288 257 238 226 207 186 208
11 276 311 285 292 296 300 307 337 350 334 291 313 291 10 347 341 332 4 353 347 354 355 356 350 344 345 342 340 336 327 328 324 319 333 332 325 315 303 273 223 173 162 168
320 262 318 301 304 314 318 2 346 5 352 333 352 74 358 335 330 339 348 354 345 344 337 353 336 350 340 339 334 328 325 320 318 317 335 337 343 343 330 330 158 146 142 165
234 260 310 276 322 314 220 8 349 356 21 329 354 331 334 335 337 332 324 351 346 334 339 338 343 341 335 332 328 326 321 313 302 318 346 352 347 346 351 9 145 151 167 177
219 216 263 288 296 297 88 43 334 332 83 16 343 334 331 328 320 308 30 353 339 334 334 334 332 328 333 328 327 323 321 310 313 352 356 360 347 353 19 31 64 137 164 189
216 250 295 271 303 289 192 43 342 343 275 15 344 336 335 332 319 296 321 343 330 325 327 324 323 322 327 326 326 319 321 319 332 350 349 353 357 14 24 49 45 66 64 54
188 247 269 296 287 288 53 336 315 299 248 6 349 337 335 335 325 307 327 325 321 321 322 318 317 318 322 327 319 322 324 325 327 335 337 351 13 26 41 59 58 69 69 60
282 246 253 279 291 284 6 330 308 262 324 338 338 328 323 317 302 303 312 313 314 315 316 315 314 311 322 324 321 319 318 322 319 327 333 6 26 40 59 64 62 72 69 71
284 294 273 277 285 276 11 345 348 341 322 322 321 319 313 309 307 306 308 310 313 313 314 314 313 312 317 319 316 309 311 318 318 324 344 21 35 52 61 76 73 77 77 70
231 350 320 293 337 359 332 303 93 328 319 317 315 316 313 310 309 310 309 308 309 310 310 311 309 306 308 307 307 304 307 313 320 321 355 17 45 50 59 76 78 77 76 77
117 10 260 316 102 339 326 117 334 335 320 315 315 311 309 308 309 308 308 307 306 309 309 307 304 300 299 301 300 294 303 313 318 318 352 356 76 69 62 63 67 72 72 77
360 319 326 273 316 336 157 331 332 324 321 320 317 314 311 310 309 308 306 305 304 305 305 302 297 291 291 295 295 296 311 311 315 316 338 21 75 87 79 65 63 71 60 76
355 349 305 296 328 310 298 317 320 324 322 320 319 317 318 315 312 310 305 303 303 303 300 295 291 287 287 290 290 298 302 309 311 309 357 51 84 93 96 95 84 74 80 78